Location: Mount Lemmon
(32.4432°N, 110.7577°W)
Time: 15:06:02
(UTC-07:00)

Amateur Radio Satellites - All Passes

Search period start: 24 November 2017 14:36
Search period end: 25 November 2017 14:36
Location: Mount Lemmon, 32.4432°N, 110.7577°W

Satellite Date Start Highest point End Downlink Frequencies (MHz)
Time Altitude Azimuth
50 SAT 24 Nov 14:44:02 14:46:13 17° 288° (WNW) 14:48:23 437.505
UKube-1 24 Nov 14:44:12 14:48:26 57° 285° (WNW) 14:52:38 .
ITAMSAT 1 24 Nov 14:50:26 14:55:14 39° 71° (ENE) 15:00:03 435.822/435.867
JUGNU 24 Nov 15:04:42 15:09:18 24° 180° (S) 15:13:52 437.505
SRMSAT 24 Nov 15:09:31 15:12:21 14° 164° (SSE) 15:15:10 437.500
M-CUBED/EXP-1 PRIME 24 Nov 15:17:50 15:19:55 15° 262° (W) 15:22:06 437.505
MOZHAYETS 4 24 Nov 15:18:48 15:23:16 54° 100° (E) 15:27:44
BEESAT 24 Nov 15:30:25 15:35:02 51° 101° (E) 15:39:37 436.000
DOVE 4 24 Nov 15:34:38 15:37:43 16° 66° (ENE) 15:40:52 437.250
CUBESAT XI-V 24 Nov 15:41:26 15:44:50 20° 95° (E) 15:48:13 437.345
ITUPSAT 1 24 Nov 15:42:40 15:47:24 70° 102° (ESE) 15:52:07 437.325
AO-7 24 Nov 15:44:20 15:52:19 53° 257° (WSW) 16:00:22 .
YUBILEINY 24 Nov 15:58:53 16:06:58 39° 77° (ENE) 16:14:59 435.215
RS-15 24 Nov 16:18:20 16:26:34 21° 100° (E) 16:34:48 29.354- 29.394
ITAMSAT 1 24 Nov 16:30:59 16:34:45 20° 265° (W) 16:38:32 435.822/435.867
KKS-1 24 Nov 16:43:38 16:46:41 18° 95° (E) 16:49:43 437.445
CUTE-I 24 Nov 16:51:43 16:55:14 18° 66° (ENE) 16:58:46 437.470
JUGNU 24 Nov 16:53:40 16:57:41 19° 190° (S) 17:01:42 437.505
SRMSAT 24 Nov 16:56:26 17:00:52 22° 174° (S) 17:05:17 437.500
MOZHAYETS 4 24 Nov 16:58:18 16:59:53 12° 294° (WNW) 17:01:30
DOVE 4 24 Nov 17:10:01 17:14:51 49° 262° (W) 17:19:55 437.250
BEESAT 24 Nov 17:10:04 17:12:17 13° 294° (WNW) 17:14:31 436.000
XW-2D 24 Nov 17:16:53 17:20:11 31° 73° (ENE) 17:23:29 145.860 - 145.880
CUBESAT XI-V 24 Nov 17:18:01 17:22:10 32° 288° (WNW) 17:26:19 437.345
HO-68 24 Nov 17:28:02 17:33:25 24° 63° (ENE) 17:38:49 435.675
NUDT-PHONESAT 24 Nov 17:29:30 17:32:38 28° 73° (ENE) 17:35:46 437.300
XW-2B 24 Nov 17:31:33 17:35:06 47° 76° (ENE) 17:38:43 145.730 - 145.750
CUTE 1.7 + AOD 2 24 Nov 17:54:59 17:58:02 20° 70° (ENE) 18:01:05 437.475
YUBILEINY 24 Nov 17:55:41 18:03:36 39° 273° (W) 18:11:29 435.215
XW-2C 24 Nov 17:57:16 18:00:57 68° 259° (W) 18:04:40 145.795 - 145.815
CUBEBUG 2 24 Nov 17:57:27 17:59:33 13° 68° (ENE) 18:01:37 437.445
XW-2F 24 Nov 18:04:14 18:07:52 58° 260° (W) 18:11:32 145.980 - 146.000
LilacSat-2 24 Nov 18:04:23 18:08:00 48° 260° (W) 18:11:38 437.200
ISS 24 Nov 18:12:14 18:14:28 17° 127° (SE) 18:16:42 437.550
SEEDS 24 Nov 18:17:28 18:20:37 21° 71° (ENE) 18:23:47 437.485
KKS-1 24 Nov 18:19:19 18:23:13 31° 288° (WNW) 18:27:06 437.445
RS-15 24 Nov 18:25:15 18:37:33 86° 297° (WNW) 18:49:55 29.354- 29.394
KAITUO 1B 24 Nov 18:25:20 18:28:46 38° 261° (W) 18:32:13 145.475/437.950
CUTE-I 24 Nov 18:29:42 18:34:50 47° 260° (W) 18:40:00 437.470
STARS 24 Nov 18:31:43 18:36:01 60° 285° (WNW) 18:40:17 437.465
UWE-3 24 Nov 18:44:13 18:47:46 24° 72° (ENE) 18:51:15 435.000/436.395/437.385
SRMSAT 24 Nov 18:44:53 18:49:26 23° 184° (S) 18:54:00 437.500
nSIGHT-1 24 Nov 18:50:16 18:53:27 73° 134° (SE) 18:56:39 .
XW-2D 24 Nov 18:52:56 18:54:23 12° 266° (W) 18:55:50 145.860 - 145.880
NUDT-PHONESAT 24 Nov 19:04:54 19:06:29 12° 266° (W) 19:08:04 437.300
HO-68 24 Nov 19:13:34 19:20:36 57° 258° (WSW) 19:27:40 435.675
AO-73 24 Nov 19:14:05 19:17:27 23° 72° (ENE) 19:20:45 145.935
FO-29 24 Nov 19:20:18 19:23:08 12° 87° (E) 19:25:54 435.910
XW-2A 24 Nov 19:22:00 19:25:16 63° 76° (ENE) 19:28:32 145.665 - 145.685
Oscar 11 24 Nov 19:26:03 19:29:14 21° 70° (ENE) 19:32:26 .
CUTE 1.7 + AOD 2 24 Nov 19:30:12 19:33:39 25° 264° (W) 19:37:08 437.475
CUBEBUG 2 24 Nov 19:31:21 19:35:45 46° 261° (W) 19:40:02 437.445
AAUSAT CUBESAT 2 24 Nov 19:46:08 19:50:13 71° 259° (W) 19:54:21 437.432
ISS 24 Nov 19:47:49 19:50:45 30° 321° (NW) 19:53:41 437.550
STRAND 1 24 Nov 19:48:47 19:53:54 79° 103° (ESE) 19:58:58 437.568
SEEDS 24 Nov 19:52:50 19:56:08 23° 264° (W) 19:59:27 437.485
ZACube-1 24 Nov 20:00:39 20:04:58 79° 258° (WSW) 20:09:12 437.345
SO-50 24 Nov 20:04:44 20:08:35 30° 112° (ESE) 20:12:28 436.795
UWE-3 24 Nov 20:20:37 20:24:06 22° 264° (W) 20:27:31 435.000/436.395/437.385
nSIGHT-1 24 Nov 20:28:55 20:30:00 11° 329° (NNW) 20:31:06 .
SRMSAT 24 Nov 20:34:32 20:37:59 16° 194° (SSW) 20:41:26 437.500
RS-15 24 Nov 20:42:29 20:51:58 25° 320° (NW) 21:01:27 29.354- 29.394
AO-73 24 Nov 20:50:11 20:53:32 22° 264° (W) 20:56:51 145.935
FO-29 24 Nov 21:01:20 21:09:06 88° 102° (ESE) 21:16:09 435.910
Oscar 11 24 Nov 21:01:38 21:05:10 25° 263° (W) 21:08:44 .
NO-84 24 Nov 21:09:20 21:13:07 30° 42° (NE) 21:16:53 435.350 FM
DELFI C3 24 Nov 21:13:16 21:17:12 77° 77° (ENE) 21:21:11 145.870
EO-88 24 Nov 21:16:24 21:19:39 33° 74° (ENE) 21:22:56 145.990 - 145.960
Max Valier Satellite 24 Nov 21:27:25 21:31:02 79° 77° (ENE) 21:34:40 145.860
SO-50 24 Nov 21:45:32 21:49:01 22° 307° (NW) 21:52:31 436.795
PRISM 24 Nov 21:56:20 21:58:45 15° 95° (E) 22:01:09 437.425
O/OREOS (USA 219) 24 Nov 21:57:58 22:00:38 15° 61° (ENE) 22:03:16 437.305
UNISAT 6 24 Nov 22:12:26 22:16:41 89° 279° (W) 22:20:56 437.425
TIGRISAT 24 Nov 22:15:36 22:19:50 89° 78° (ENE) 22:24:05 435.000
NO-84 24 Nov 22:46:46 22:50:23 27° 236° (WSW) 22:53:56 435.350 FM
FO-29 24 Nov 22:48:40 22:52:55 16° 301° (WNW) 22:57:02 435.910
ESTCUBE 1 24 Nov 22:50:57 22:55:14 48° 74° (ENE) 22:59:32 437.505/2401.250
EO-88 24 Nov 22:53:06 22:53:22 10° 267° (W) 22:53:39 145.990 - 145.960
LO-87 24 Nov 23:00:13 23:03:48 83° 259° (W) 23:07:24 145.935 - 145.965
SPROUT 24 Nov 23:18:36 23:21:47 21° 70° (ENE) 23:24:57 437.525
AIST 2D 24 Nov 23:22:18 23:25:46 57° 100° (E) 23:29:14 435.315
QB50P2 24 Nov 23:25:16 23:28:16 19° 95° (E) 23:31:15 145.880/145.840
PRISM 24 Nov 23:30:21 23:34:02 32° 288° (WNW) 23:37:41 437.425
PCSat 24 Nov 23:30:54 23:36:18 79° 296° (WNW) 23:41:43 145.827
O/OREOS (USA 219) 24 Nov 23:35:59 23:40:12 40° 256° (WSW) 23:44:21 437.305
DUCHIFAT 1 25 Nov 00:07:06 00:11:01 41° 99° (E) 00:14:57 145.980
EO-79 25 Nov 00:19:40 00:23:51 85° 102° (ESE) 00:28:01 145.935-145.965
NANOSAT C BR1 25 Nov 00:19:59 00:24:09 74° 102° (ESE) 00:28:18 145.865
VELOX 1 25 Nov 00:28:45 00:33:10 88° 256° (WSW) 00:37:38 145.980
ESTCUBE 1 25 Nov 00:30:44 00:32:14 11° 267° (W) 00:33:44 437.505/2401.250
POLYITAN 1 25 Nov 00:36:16 00:40:22 58° 284° (WNW) 00:44:28 437.675
BUGSAT 1 25 Nov 00:43:11 00:46:22 22° 97° (E) 00:49:31 437.445
SPROUT 25 Nov 00:53:55 00:57:28 25° 263° (W) 01:01:01 437.525
QB50P2 25 Nov 01:00:29 01:03:59 26° 288° (WNW) 01:07:27 145.880/145.840
DX 1 25 Nov 01:00:51 01:04:56 42° 73° (ENE) 01:09:03 434.975-435.025
50 SAT 25 Nov 01:05:08 01:08:13 48° 76° (ENE) 01:11:21 437.505
Oscar 19 25 Nov 01:06:18 01:10:30 25° 96° (E) 01:14:41 437.125/150
BEESAT 2 25 Nov 01:17:19 01:18:48 12° 108° (ESE) 01:20:17 435.950
nSIGHT-1 25 Nov 01:22:18 01:23:21 11° 30° (NNE) 01:24:25 .
RS-15 25 Nov 01:23:03 01:31:13 20° 34° (NE) 01:39:04 29.354- 29.394
BEESAT 3 25 Nov 01:30:01 01:33:57 81° 117° (ESE) 01:37:57 437.485
UKube-1 25 Nov 01:33:30 01:37:45 62° 75° (ENE) 01:42:01 .
DUCHIFAT 1 25 Nov 01:44:36 01:46:15 12° 293° (WNW) 01:47:55 145.980
Gurwin Techsat 1B 25 Nov 02:05:20 02:10:38 72° 102° (ESE) 02:15:54 435.225
AO-91 25 Nov 02:10:20 02:14:31 60° 285° (WNW) 02:18:15 145.960
MOZHAYETS 4 25 Nov 02:16:16 02:20:13 29° 72° (ENE) 02:24:08
BUGSAT 1 25 Nov 02:18:37 02:21:32 20° 290° (WNW) 02:24:27 437.445
ISS 25 Nov 02:19:02 02:21:55 29° 39° (NE) 02:24:48 437.550
BEESAT 25 Nov 02:32:15 02:36:32 35° 72° (ENE) 02:40:51 436.000
DX 1 25 Nov 02:39:16 02:41:15 13° 266° (W) 02:43:14 434.975-435.025
CUBESAT XI-V 25 Nov 02:42:07 02:43:37 11° 66° (ENE) 02:45:07 437.345
ITUPSAT 1 25 Nov 02:44:40 02:49:13 47° 73° (ENE) 02:53:48 437.325
Oscar 19 25 Nov 02:45:15 02:49:44 31° 290° (WNW) 02:54:12 437.125/150
BEESAT 2 25 Nov 02:52:18 02:56:04 41° 301° (WNW) 02:59:54 435.950
nSIGHT-1 25 Nov 02:56:44 02:59:54 71° 225° (SW) 03:03:02 .
M-CUBED/EXP-1 PRIME 25 Nov 02:57:51 03:02:19 47° 104° (ESE) 03:06:46 437.505
AO-85 25 Nov 03:00:49 03:04:38 70° 116° (ESE) 03:08:33 145.980
ITAMSAT 1 25 Nov 03:08:43 03:12:25 20° 95° (E) 03:16:06 435.822/435.867
RS-15 25 Nov 03:34:24 03:46:10 73° 60° (ENE) 03:57:15 29.354- 29.394
KKS-1 25 Nov 03:40:03 03:40:18 10° 65° (ENE) 03:40:33 437.445
Gurwin Techsat 1B 25 Nov 03:48:04 03:49:53 12° 297° (WNW) 03:51:42 435.225
AO-7 25 Nov 03:50:42 03:59:03 73° 105° (ESE) 04:07:23 .
MOZHAYETS 4 25 Nov 03:54:00 03:57:18 20° 265° (W) 04:00:38
ISS 25 Nov 03:55:56 03:58:13 18° 232° (SW) 04:00:29 437.550
BEESAT 25 Nov 04:11:03 04:14:20 18° 265° (W) 04:17:37 436.000
CUBESAT XI-V 25 Nov 04:15:57 04:20:25 55° 260° (W) 04:24:57 437.345
ITUPSAT 1 25 Nov 04:24:52 04:27:13 14° 266° (W) 04:29:34 437.325
M-CUBED/EXP-1 PRIME 25 Nov 04:33:34 04:36:15 15° 297° (WNW) 04:38:55 437.505
ITAMSAT 1 25 Nov 04:47:09 04:51:56 39° 289° (WNW) 04:56:41 435.822/435.867
YUBILEINY 25 Nov 04:53:29 05:01:49 51° 90° (E) 05:10:12 435.215
KKS-1 25 Nov 05:11:51 05:16:16 61° 259° (W) 05:20:42 437.445
DOVE 4 25 Nov 05:13:44 05:18:45 69° 101° (E) 05:23:26 437.250
STARS 25 Nov 05:23:08 05:27:29 65° 75° (ENE) 05:31:52 437.465
XW-2C 25 Nov 05:35:04 05:37:34 17° 95° (E) 05:40:02 145.795 - 145.815
XW-2F 25 Nov 05:41:16 05:43:58 18° 96° (E) 05:46:39 145.980 - 146.000
LilacSat-2 25 Nov 05:42:17 05:45:22 23° 96° (E) 05:48:26 437.200
AO-7 25 Nov 05:45:03 05:50:58 22° 302° (WNW) 05:56:54 .
RS-15 25 Nov 05:48:46 05:57:16 25° 258° (WSW) 06:05:32 29.354- 29.394
KAITUO 1B 25 Nov 06:00:46 06:03:55 25° 97° (E) 06:07:03 145.475/437.950
SO-50 25 Nov 06:19:34 06:24:15 89° 229° (SW) 06:28:58 436.795
XW-2D 25 Nov 06:27:02 06:30:52 87° 276° (W) 06:34:40 145.860 - 145.880
NUDT-PHONESAT 25 Nov 06:36:49 06:40:32 79° 101° (E) 06:44:14 437.300
XW-2B 25 Nov 06:42:07 06:45:50 55° 284° (WNW) 06:49:35 145.730 - 145.750
FALCONSAT 3 25 Nov 06:45:21 06:48:24 25° 151° (SSE) 06:51:29 435.103
HO-68 25 Nov 06:46:34 06:53:06 37° 99° (E) 06:59:34 435.675
CUTE-I 25 Nov 06:51:12 06:56:33 81° 284° (WNW) 07:01:52 437.470
YUBILEINY 25 Nov 06:51:34 06:58:49 29° 286° (WNW) 07:06:10 435.215
DOVE 4 25 Nov 06:54:33 06:55:39 11° 296° (WNW) 06:56:43 437.250
STRAND 1 25 Nov 06:59:49 07:04:55 70° 75° (ENE) 07:10:02 437.568
FO-29 25 Nov 07:08:29 07:13:51 25° 64° (ENE) 07:19:37 435.910
XW-2C 25 Nov 07:08:33 07:11:39 24° 287° (WNW) 07:14:46 145.795 - 145.815
XW-2F 25 Nov 07:15:00 07:17:56 22° 288° (WNW) 07:20:53 145.980 - 146.000
LilacSat-2 25 Nov 07:16:45 07:19:25 18° 289° (WNW) 07:22:06 437.200
CUTE 1.7 + AOD 2 25 Nov 07:18:30 07:22:47 75° 102° (ESE) 07:27:02 437.475
CUBEBUG 2 25 Nov 07:26:34 07:30:33 48° 99° (E) 07:34:33 437.445
AAUSAT CUBESAT 2 25 Nov 07:33:05 07:36:30 24° 96° (E) 07:39:53 437.432
KAITUO 1B 25 Nov 07:35:18 07:37:38 16° 290° (WNW) 07:39:59 145.475/437.950
SEEDS 25 Nov 07:39:53 07:44:08 80° 103° (ESE) 07:48:22 437.485
ZACube-1 25 Nov 07:53:42 07:57:12 26° 97° (E) 08:00:44 437.345
UWE-3 25 Nov 08:13:27 08:17:36 80° 282° (WNW) 08:21:46 435.000/436.395/437.385
XW-2A 25 Nov 08:20:09 08:23:27 57° 284° (WNW) 08:26:46 145.665 - 145.685
FALCONSAT 3 25 Nov 08:23:37 08:27:17 85° 342° (NNW) 08:30:58 435.103
PCSat 25 Nov 08:23:47 08:28:34 31° 58° (ENE) 08:33:18 145.827
HO-68 25 Nov 08:34:20 08:40:39 35° 293° (WNW) 08:46:58 435.675
AO-73 25 Nov 08:41:14 08:45:23 87° 284° (WNW) 08:49:37 145.935
STRAND 1 25 Nov 08:44:05 08:44:28 10° 268° (W) 08:44:51 437.568
FO-29 25 Nov 08:51:53 08:58:16 52° 262° (W) 09:05:27 435.910
Oscar 11 25 Nov 08:52:20 08:56:39 81° 100° (E) 09:00:58 .
DELFI C3 25 Nov 08:56:09 08:58:07 13° 94° (E) 09:00:04 145.870
CUBEBUG 2 25 Nov 09:06:13 09:06:41 10° 293° (WNW) 09:07:10 437.445
UNISAT 6 25 Nov 09:06:15 09:10:34 44° 74° (ENE) 09:14:47 437.425
AAUSAT CUBESAT 2 25 Nov 09:08:39 09:11:45 21° 289° (WNW) 09:14:51 437.432
TIGRISAT 25 Nov 09:09:17 09:13:35 43° 74° (ENE) 09:17:47 435.000
ZACube-1 25 Nov 09:30:20 09:33:16 19° 289° (WNW) 09:36:14 437.345
BEESAT 3 25 Nov 09:52:54 09:54:11 11° 50° (NE) 09:55:26 437.485
FALCONSAT 3 25 Nov 10:02:58 10:06:32 51° 359° (N) 10:10:08 435.103
PCSat 25 Nov 10:07:15 10:11:48 28° 253° (WSW) 10:16:21 145.827
PRISM 25 Nov 10:13:58 10:18:04 90° 283° (WNW) 10:22:14 437.425
EO-88 25 Nov 10:22:14 10:25:53 90° 272° (W) 10:29:31 145.990 - 145.960
DELFI C3 25 Nov 10:29:19 10:32:53 32° 287° (WNW) 10:36:25 145.870
Max Valier Satellite 25 Nov 10:35:19 10:38:43 36° 285° (WNW) 10:42:06 145.860
UNISAT 6 25 Nov 10:45:15 10:47:22 13° 266° (W) 10:49:28 437.425
TIGRISAT 25 Nov 10:48:10 10:50:21 13° 266° (W) 10:52:32 435.000
ESTCUBE 1 25 Nov 10:49:15 10:51:48 15° 94° (E) 10:54:22 437.505/2401.250
DUCHIFAT 1 25 Nov 10:55:06 10:57:52 17° 69° (ENE) 11:00:38 145.980
EO-79 25 Nov 11:07:23 11:11:09 33° 73° (ENE) 11:14:56 145.935-145.965
NANOSAT C BR1 25 Nov 11:07:31 11:11:07 28° 72° (ENE) 11:14:45 145.865
BEESAT 2 25 Nov 11:14:14 11:17:33 24° 55° (NE) 11:20:48 435.950
JUGNU 25 Nov 11:15:49 11:17:22 11° 162° (SSE) 11:18:54 437.505
POLYITAN 1 25 Nov 11:23:42 11:27:48 53° 75° (ENE) 11:31:54 437.675
AIST 2D 25 Nov 11:24:45 11:27:53 33° 262° (W) 11:31:02 435.315
BEESAT 3 25 Nov 11:28:12 11:31:59 50° 245° (WSW) 11:35:41 437.485
AO-85 25 Nov 11:35:56 11:39:31 20° 54° (NE) 11:43:15 145.980
FALCONSAT 3 25 Nov 11:42:08 11:45:49 83° 12° (NNE) 11:49:30 435.103
QB50P2 25 Nov 11:47:19 11:51:31 67° 259° (W) 11:55:44 145.880/145.840
O/OREOS (USA 219) 25 Nov 12:04:09 12:08:25 39° 104° (ESE) 12:12:42 437.305
LO-87 25 Nov 12:04:49 12:07:59 32° 286° (WNW) 12:11:07 145.935 - 145.965
Oscar 19 25 Nov 12:18:59 12:22:56 23° 68° (ENE) 12:26:53 437.125/150
NO-84 25 Nov 12:21:15 12:23:35 18° 121° (ESE) 12:26:03 435.350 FM
VELOX 1 25 Nov 12:23:50 12:27:27 24° 97° (E) 12:31:02 145.980
ESTCUBE 1 25 Nov 12:24:29 12:28:42 39° 287° (WNW) 12:32:53 437.505/2401.250
DUCHIFAT 1 25 Nov 12:29:35 12:33:15 29° 262° (W) 12:36:56 145.980
SPROUT 25 Nov 12:43:03 12:47:17 74° 102° (ESE) 12:51:28 437.525
NANOSAT C BR1 25 Nov 12:43:58 12:46:47 17° 265° (W) 12:49:38 145.865
EO-79 25 Nov 12:44:25 12:46:56 15° 265° (W) 12:49:26 145.935-145.965
BEESAT 2 25 Nov 12:52:06 12:55:05 20° 250° (WSW) 12:58:02 435.950
DX 1 25 Nov 12:56:48 12:57:06 10° 93° (E) 12:57:24 434.975-435.025
AO-7 25 Nov 12:59:13 13:01:17 11° 52° (NE) 13:03:21 .
AO-91 25 Nov 13:00:24 13:05:40 62° 76° (ENE) 13:10:58 145.960
JUGNU 25 Nov 13:01:30 13:05:43 20° 171° (S) 13:09:55 437.505
BUGSAT 1 25 Nov 13:02:10 13:06:16 56° 259° (W) 13:10:21 437.445
AO-85 25 Nov 13:15:26 13:20:02 42° 246° (WSW) 13:24:54 145.980
FALCONSAT 3 25 Nov 13:21:35 13:24:43 26° 208° (SSW) 13:27:51 435.103
Gurwin Techsat 1B 25 Nov 13:21:39 13:26:55 73° 75° (ENE) 13:32:14 435.225
UKube-1 25 Nov 13:26:27 13:28:50 15° 95° (E) 13:31:13 .
M-CUBED/EXP-1 PRIME 25 Nov 13:39:54 13:42:45 22° 65° (ENE) 13:45:47 437.505
O/OREOS (USA 219) 25 Nov 13:45:06 13:47:57 16° 299° (WNW) 13:50:48 437.305
Oscar 19 25 Nov 13:57:28 14:02:00 33° 262° (W) 14:06:35 437.125/150
NO-84 25 Nov 13:57:34 14:00:38 29° 318° (NW) 14:03:56 435.350 FM
50 SAT 25 Nov 13:58:12 14:01:24 86° 103° (ESE) 14:04:34 437.505
VELOX 1 25 Nov 14:00:13 14:03:43 23° 290° (WNW) 14:07:12 145.980
ITAMSAT 1 25 Nov 14:22:23 14:26:07 20° 67° (ENE) 14:29:50 435.822/435.867
